SL-16 DEB, 22620

Orbit data source: Space-Track

SL-16 DEB, 22620 is space debris in LEO originally from a launch on Fri, 26 Mar 1993 UTC launched from the Tyuratam Missile And Space Complex (TTMTR). Debris objects in space refer to the collection of defunct objects orbiting the Earth. Examples of debris include non-operational satellites, rocket bodies, and fragments generated from explosions, collisions, or faulty payload assembly.

Loading next visibility...
SL-16 DEB details
Identifier
22620, 1993-016AE
Orbit
LEO
Last TLE update19 hours ago
Origin
Flag of CISRVSN RF (CIS)
ManufacturerUnknown
MissionSpacecraft
Bus & MotorUnknown
MassUnknown
Launch date (UTC)
1993-03-26 (32 years ago)
Launch vehicleUnknown
Launch site
Tyuratam Missile And Space Complex (TTMTR)
Object type
Payload
Rocket body
Debris
Shape & HBRUnknown
Radar Cross SectionMedium (>0.1 m² and <1 m²)

Expand to show TLE details & history

TLE from 19 hours ago
0 SL-16 DEB
1 22620U 93016AE  25023.73924417  .00000110  00000-0  12924-3 0  9993
2 22620  71.0071 132.2077 0136095 227.8533 250.4614 13.84062049607042
Epoch: 2025-01-23T17:44Z
Definitive object data (Epoch: 2025-01-23T17:44:30.696Z)
Latitude57.6303°
Longitude-109.92825°
Altitude993.216 km
Speed7.343 km/s
True Right ascension18h 38m 02s
True Declination57° 28' 46"
Sunlit
Object was in daylight at TLE epoch
Visualization TLE readout
Latitude56.92097°
Longitude-110.53121°
Altitude989.697 km
Speed7.347 km/s
Apparent Right ascension22h 53m 41s
Apparent Declination22° 31' 17"
Sunlit
Object is in daylight
Visualization observer readout
Local Sidereal Time14:05:28
Azimuth44.796° NE
Elevation-13.226°
Doppler factor1
Orbital elements
Apogee altitude1,047.166 km
Perigee altitude847.771 km
Semi-major axis7,325.606 km
Eccentricity0.0136095
Inclination71.0071°
RAAN132.2077°
Arg. of periapsis227.8533°
True anomaly249.00014°
Mean anomaly250.4614°
Eccentric anomaly249.72992°
Mean motion3.46161 °/min
BSTAR0.00012924
Orbital period104 mins
Loading maneuver chart data...
Loading historical data...
Loading historical data...
Loading historical data...
Loading historical data...
Loading historical data...
Loading historical data...
Loading historical data...

SL-16 DEB Visibility forecast

Observer location: undefined°, undefined

Span
Click to sort rows by Start time (UTC) header in descending order
Start Az.
Max El. time (UTC)
Max El. Az.
Max El.
End time (UTC)
End Az.
6 mins2025-01-24 16:16:33.768Z15.026° NNE2025-01-24 16:19:33.768Z44.063° NE13.898°2025-01-24 16:22:33.768Z74.004° E
10 mins2025-01-24 18:02:33.768Z341.476° N2025-01-24 18:07:33.768Z99.263° ESE43.937°2025-01-24 18:12:33.768Z151.765° SSE
5 mins2025-01-24 19:50:33.768Z287.238° WNW2025-01-24 19:52:33.768Z266.349° W14.524°2025-01-24 19:55:33.768Z234.97° WSW
10 mins2025-01-25 07:26:33.768Z162.696° S2025-01-25 07:31:33.768Z98.309° ESE31.44°2025-01-25 07:36:33.768Z42.136° NE
11 mins2025-01-25 09:12:33.768Z238.274° WSW2025-01-25 09:17:33.768Z298.721° NW32.265°2025-01-25 09:23:33.768Z8.105° NNE
|